Retour au catalogue

CERES 1

ActifMilitaireLEO
NORAD 49464·PAYLOAD·🇫🇷 France

Lancé Nov 16, 2021 depuis Guiana Space Centre

Loading…

Prochains Passages (prochaines 24 heures)

TLE

PériméSource: Mike McCants

Époque: Aug 26, 2026, 02:20 UTC

1 49464U 21105A   26238.09733964 0.00000334  00000-0  56294-4 0    01
2 49464  74.9991 218.2999 0012841 253.0055 107.0521 14.69464780    09

Suivez CERES 1 en temps réel avec AllMySat

Download on the App Store